Regional Weather Roundup
Issued by NWS

Home | Current Version | Previous Version | Graphics & Text | Print | Product List | Glossary On
Versions: 1 2 3 4 5 6 7 8 9 10 11 12 13 14 15 16 17 18 19 20 21 22 23 24 25 26 27 28 29 30 31 32 33 34 35 36 37 38 39 40 41 42 43 44 45 46 47 48 49 50
000
ASUS43 KIND 250400
RWRIN

WEATHER ROUNDUP FOR INDIANA
NATIONAL WEATHER SERVICE INDIANAPOLIS IN
1200 AM EDT THU MAY 25 2017

NOTE: "FAIR" INDICATES FEW OR NO CLOUDS BELOW 12,000 FEET WITH NO
SIGNIFICANT WEATHER AND/OR OBSTRUCTIONS TO VISIBILITY.

* - STATION DOES NOT REPORT WEATHER SUCH AS PRECIPITATION OR FOG.

+ - STATION NOT QUALITY CONTROLLED BY THE NATIONAL WEATHER SERVICE.
    USE DATA WITH CAUTION...ESPECIALLY DEWPOINT AND RELATIVE
    HUMIDITY OBSERVATIONS.

INZ001>003-010>013-019-020-250500-
NORTHWEST INDIANA

CITY           SKY/WX    TMP DP  RH WIND       PRES   REMARKS
MICHIGAN CITY+ CLOUDY    54  54 100 N10       29.51F
MONTICELLO +   CLOUDY    53  52  95 NW12G21   29.46S FOG
RENSSELAER +   CLOUDY    52  50  93 NW9       29.50F FOG

$$

LMZ046-743>745-250500-
SOUTHERN LAKE MICHIGAN

STATION/POSITION TIME  TEMP    WIND        PRES    WAVE
                       AIR SEA DIR/SP/G            HT
                 (UTC) (F)     (DEG/KT/KT) (MB)    (FT)
BURNS HARBOR     0340   51     330/ 10/ 13 1000.3F
MICHIGAN CITY    0330   53     340/ 14/ 15   N/A
5NW MICH CITY    0350   52 53  350/ 14/ 17   N/A     5

$$

INZ004-005-014>016-021>024-250500-
NORTH CENTRAL INDIANA

CITY           SKY/WX    TMP DP  RH WIND       PRES   REMARKS
GOSHEN         LGT RAIN  59  56  89 N13       29.45F FOG
PERU/GRISSOM   CLOUDY    59  59 100 N13       29.41F
SOUTH BEND     CLOUDY    58  58 100 N10       29.49F

$$

INZ006>009-017-018-025>027-250500-
NORTHEAST INDIANA

CITY           SKY/WX    TMP DP  RH WIND       PRES   REMARKS
ANGOLA *+      CLOUDY    57  45  62 NE9       29.45S
FORT WAYNE     LGT RAIN  59  57  93 NE13      29.40F

$$

INZ028-029-035-036-043>045-051>053-250500-
WEST CENTRAL INDIANA

CITY           SKY/WX    TMP DP  RH WIND       PRES   REMARKS
CRAWFORDSVL +  CLOUDY    55  55 100 NW9       29.47S
GREENCASTLE +  CLOUDY    55  54  94 NW5       29.46F
LAFAYETTE      CLOUDY    54  53  97 NW10      29.47S FOG
TERRE HAUTE    CLOUDY    57  54  89 NW9       29.48F

$$

INZ030>032-037>040-046>048-054>057-064-065-250500-
CENTRAL INDIANA

CITY           SKY/WX    TMP DP  RH WIND       PRES   REMARKS
INDIANAPOLIS   CLOUDY    59  56  89 NW14      29.42S
-EAGLE CREEK   CLOUDY    59  55  87 NW14      29.42S
KOKOMO +       LGT RAIN  59  57  93 N13       29.42S FOG
SHELBYVILLE    LGT RAIN  60  56  86 NW8       29.40S

$$

INZ033-034-041-042-049-050-058-059-250500-
EAST CENTRAL INDIANA

CITY           SKY/WX    TMP DP  RH WIND       PRES   REMARKS
MUNCIE         LGT RAIN  60  58  92 N9        29.37F
RICHMOND +     CLOUDY    55  55 100 NW8       29.38S

$$

INZ060-061-067>069-081>083-085>088-250500-
SOUTHWEST INDIANA

CITY           SKY/WX    TMP DP  RH WIND       PRES   REMARKS
EVANSVILLE     CLOUDY    59  55  87 W8        29.52S
HUNTINGBURG *+ CLOUDY    57  56  96 W8        29.50R

$$

INZ062-063-066-070>080-084-089>092-250500-
SOUTH CENTRAL AND SOUTHEAST INDIANA

CITY           SKY/WX    TMP DP  RH WIND       PRES   REMARKS
BLOOMINGTON    LGT RAIN  58  54  86 NW7       29.45S FOG
SEYMOUR +      RAIN      59  59 100 W7        29.43R

$$





USA.gov is the U.S. government's official web portal to all federal, state and local government web resources and services.